{"data":{"norad_id":69134,"intl_designator":"2026-110L","name":"STARLINK-37361","alt_names":[],"object_type":"PAYLOAD","status":"ACTIVE","operator":null,"country":"US","launch_date":"2026-05-20","launch_site_code":"AFWTR","launch_vehicle":null,"mission":null,"orbit_class":"UNKNOWN","rcs_meters":null,"size_class":null,"mass_kg":null,"dimensions":null,"purposes":["comms"],"wikipedia_slug":null,"has_3d_model":false,"image_url":null,"decayed_at":null,"tle_current":{"epoch":"2026-09-19T18:27:49.766400Z","epoch_age_seconds":86313,"freshness":"FRESH","line1":"1 69134U 26110L   26262.76932600  .00015285  00000+0  47469-3 0  9997","line2":"2 69134  97.2861  97.8303 0001828  90.5859 269.5593 15.33453878 20102","mean_motion":15.33453878,"eccentricity":0.0001828,"inclination_deg":97.2861,"raan_deg":97.8303,"arg_perigee_deg":90.5859,"mean_anomaly_deg":269.5593,"bstar":0.00047469,"rev_number":2010,"period_min":93.905660982651,"perigee_km":464.26574001646,"apogee_km":466.76777983109,"semimajor_km":6843.6537599238,"source":"CELESTRAK","updated_at":"2026-09-20T09:00:44.086190Z"}}}